Location: Cheyres
(46.8153°N, 6.7877°E)
Time: 14:10:06
(UTC+00:00)

Cosmos 1777 Rocket - Pass Details

Date: 11 May 2021
Orbit: 758 x 776 km, 74.0° (Epoch: 19 June)

Event Time Altitude Azimuth Distance (km) Brightness Sun altitude
Rises 20:44:03 0° 201° (SSW) 3,204 6.9 -15.2°
Reaches altitude 10° 20:46:24 10° 202° (SSW) 2,282 6.2 -15.5°
Maximum altitude 20:51:35 86° 290° (WNW) 767 4.0 -16.0°
Drops below altitude 10° 20:56:49 10° 21° (NNE) 2,299 6.9 -16.6°
Sets 20:59:12 0° 22° (NNE) 3,230 7.7 -16.8°
